Regional Weather Roundup
Issued by NWS

Home | Current Version | Previous Version | Text Only | Print | Product List | Glossary Off
Versions: 1 2 3 4 5 6 7 8 9 10 11 12 13 14 15 16 17 18 19 20 21 22 23 24 25 26 27 28 29 30 31 32 33 34 35 36 37 38 39 40 41 42 43 44 45 46 47 48 49 50

000
ASUS43 KIND 310509
RWRIN

WEATHER ROUNDUP FOR INDIANA
NATIONAL WEATHER SERVICE INDIANAPOLIS IN
100 AM EDT FRI OCT 31 2014

NOTE: "FAIR" INDICATES FEW OR NO CLOUDS BELOW 12,000 FEET WITH NO
SIGNIFICANT WEATHER AND/OR OBSTRUCTIONS TO VISIBILITY.

* - STATION DOES NOT REPORT WEATHER SUCH AS PRECIPITATION OR FOG.

+ - STATION NOT QUALITY CONTROLLED BY THE NATIONAL WEATHER SERVICE.
    USE DATA WITH CAUTION...ESPECIALLY DEWPOINT AND RELATIVE
    HUMIDITY OBSERVATIONS.

INZ001>003-010>013-019-020-310600-
NORTHWEST INDIANA

CITY           SKY/WX    TMP DP  RH WIND       PRES   REMARKS
GARY /AIRPORT/ MOCLDY    46  37  70 W7        30.05S
KNOX *+        MOCLDY    42  37  82 W5        30.03S
LA PORTE +     PTCLDY    43  37  77 W3        30.03F
MICHIGAN CITY+ MOCLDY    41  34  75 SW5       30.03F
MONTICELLO +   CLOUDY    40  39  95 CALM      30.04S
RENSSELAER +   MOCLDY    43  37  81 W3        30.05F
VALPARAISO     MOCLDY    42  36  79 W7        30.04S

$$

LMZ046-743>745-310600-
SOUTHERN LAKE MICHIGAN

STATION/POSITION TIME  TEMP WIND        PRES
                       AIR  DIR/SP/G
                 (UTC) (F)  (DEG/KT/KT) (MB)
MICHIGAN CITY    0500   49  240/ 16/ 19   N/A

$$

INZ004-005-014>016-021>024-310600-
NORTH CENTRAL INDIANA

CITY           SKY/WX    TMP DP  RH WIND       PRES   REMARKS
GOSHEN         CLOUDY    44  38  79 SW5       30.01F
LOGANSPORT +   CLOUDY    41  36  81 CALM      30.05S
PERU/GRISSOM   CLOUDY    42  39  91 W3        30.03F
ROCHESTER +    CLOUDY    46  37  71 W3        30.04S
SOUTH BEND     CLOUDY    46  36  68 SW8       30.02F
WARSAW +       CLOUDY    43  36  75 W3        30.03S

$$

INZ006>009-017-018-025>027-310600-
NORTHEAST INDIANA

CITY           SKY/WX    TMP DP  RH WIND       PRES   REMARKS
ANGOLA *+      CLOUDY    43  36  75 SW5       30.00F
AUBURN +       CLOUDY    43  34  70 CALM      30.03S
FORT WAYNE     CLOUDY    43  37  79 SW5       30.04S
HUNTINGTON +   CLOUDY   N/A N/A N/A CALM      30.02F

$$

INZ028-029-035-036-043>045-051>053-310600-
WEST CENTRAL INDIANA

CITY           SKY/WX    TMP DP  RH WIND       PRES   REMARKS
GREENCASTLE +  CLOUDY    45  41  87 CALM      30.05F
LAFAYETTE      MOCLDY    44  39  82 W3        30.05S
TERRE HAUTE    CLOUDY    47  44  90 CALM      30.06F

$$

INZ030>032-037>040-046>048-054>057-064-065-310600-
CENTRAL INDIANA

CITY           SKY/WX    TMP DP  RH WIND       PRES   REMARKS
CP ATTERBURY + DRIZZLE   45  41  87 CALM      30.05F
FRANKFORT +    MOCLDY    44  40  85 SW3       30.06S
GREENWOOD *+   CLOUDY    48  37  66 CALM      30.05
INDIANAPOLIS   CLOUDY    47  40  76 NW5       30.04F
-EAGLE CREEK   CLOUDY    48  38  68 W3        30.04S
KOKOMO *+      MOCLDY    45  37  76 CALM      30.04F
MARION +       MOCLDY    43  36  77 CALM      30.04S
MT COMFORT *+  CLOUDY    45  37  76 CALM      30.04S
SHELBYVILLE    CLOUDY    47  40  76 S5        30.04S
ZIONSVILLE +   CLOUDY    46  37  70 W5        30.05S

$$

INZ033-034-041-042-049-050-058-059-310600-
EAST CENTRAL INDIANA

CITY           SKY/WX    TMP DP  RH WIND       PRES   REMARKS
MUNCIE         CLOUDY    46  35  65 S3        30.03F

$$

INZ060-061-067>069-081>083-085>088-310600-
SOUTHWEST INDIANA

CITY           SKY/WX    TMP DP  RH WIND       PRES   REMARKS
EVANSVILLE     CLOUDY    51  44  77 CALM      30.04F
HUNTINGBURG *+ CLOUDY    48  41  76 E7        30.04F
WASHINGTON +   DRIZZLE   47  45  93 CALM      30.05S

$$

INZ062-063-066-070>080-084-089>092-310600-
SOUTH CENTRAL AND SOUTHEAST INDIANA

CITY           SKY/WX    TMP DP  RH WIND       PRES   REMARKS
BEDFORD +      DRIZZLE   46  41  81 CALM      30.05
BLOOMINGTON    LGT RAIN  47  41  80 CALM      30.05F
NORTH VERNON + CLOUDY    46  45  93 CALM      30.05S

$$




USA.gov is the U.S. government's official web portal to all federal, state and local government web resources and services.